sat.trackr.live / text

‹ back to catalog

FLOCK 4G-34

NORAD 62650 · 2025-009AT

PAYLOAD ACTIVE UNKNOWN

§ Identity

Operator
Country
US
Launch date
2025-01-14
Launch site
AFWTR
Launch vehicle
Mass (kg)
RCS (m²)

Purposes: earth_obs

External: N2YO · Heavens-Above · Gunter

§ Orbital elements

Epoch: 2026-09-19T22:56:10.902336Z

Period
94.07 min
Inclination
97.3905°
Eccentricity
0.0001594
Mean motion
15.30727123 rev/d
Perigee alt
472.5 km
Apogee alt
474.7 km
Semi-major
6,851.8 km
B*
2.5306e-4
RAAN
344.1019°
Arg perigee
19.7573°
Mean anomaly
340.3730°
Rev number
9,340

§ Raw data

FLOCK 4G-341 62650U 25009AT  26262.95568174  .00007439  00000+0  25306-3 0  99992 62650  97.3905 344.1019 0001594  19.7573 340.3730 15.30727123 93404

JSON: /api/v1/satellites/62650 · /tle

For live sub-satellite position, see the globe view (requires WebGL).

§ Visibility from observer

Set your observer location to see the next 7 days of passes ≥ 10°. The values pass through the URL so the page stays shareable.

No JS? Fill the form by hand. The geolocation button needs JavaScript.